WZZ9549 LIRN-LWSK

Flight info

Callsign WZZ9549
Flight time 0h 59m
Altitude 32000
Route GALTI DCT LUNAR DCT BUMOK DCT OKIMO/N0442F330 DCT DIRES DCT DOBAR DCT PEP
Aircraft A21N/M-SDE2E3FGHIRWXY/LB1

Departure

Time 2026-04-29 16:20
Airport Naples International Airport (LIRN)

Arrival

Time 2026-04-29 17:19
Airport Skopje International Airport (LWSK)
Time Latitude Longitude Altitude Speed Heading
2026-04-29 15:49 40.87778 14.28007 303 ft 0 kts 141°
2026-04-29 16:09 40.87781 14.28003 305 ft 1 kts 141°
2026-04-29 16:09 40.87789 14.27994 304 ft 2 kts 141°
2026-04-29 16:09 40.87800 14.27979 303 ft 3 kts 124°
2026-04-29 16:09 40.87806 14.27958 303 ft 2 kts 97°
2026-04-29 16:10 40.87807 14.27956 303 ft 0 kts 88°
2026-04-29 16:10 40.87813 14.27969 304 ft 3 kts 46°
2026-04-29 16:10 40.87836 14.27981 302 ft 5 kts
2026-04-29 16:10 40.87881 14.28002 301 ft 9 kts 33°
2026-04-29 16:11 40.87929 14.28071 301 ft 11 kts 51°
2026-04-29 16:11 40.87993 14.28126 297 ft 12 kts 20°
2026-04-29 16:11 40.88052 14.28205 298 ft 13 kts 61°
2026-04-29 16:11 40.88062 14.28326 294 ft 14 kts 97°
2026-04-29 16:12 40.88049 14.28463 291 ft 16 kts 97°
2026-04-29 16:12 40.88047 14.28609 291 ft 17 kts 56°
2026-04-29 16:12 40.88119 14.28733 286 ft 18 kts 53°
2026-04-29 16:12 40.88196 14.28867 282 ft 19 kts 53°
2026-04-29 16:13 40.88276 14.29007 279 ft 19 kts 52°
2026-04-29 16:13 40.88361 14.29152 275 ft 20 kts 52°
2026-04-29 16:13 40.88448 14.29303 271 ft 21 kts 53°
2026-04-29 16:13 40.88539 14.29461 267 ft 22 kts 52°
2026-04-29 16:14 40.88634 14.29625 262 ft 23 kts 52°
2026-04-29 16:14 40.88732 14.29795 257 ft 24 kts 52°
2026-04-29 16:14 40.88833 14.29969 251 ft 24 kts 52°
2026-04-29 16:14 40.88919 14.30117 246 ft 19 kts 52°
2026-04-29 16:15 40.89000 14.30258 241 ft 20 kts 53°
2026-04-29 16:15 40.89069 14.30378 238 ft 11 kts 52°
2026-04-29 16:15 40.89122 14.30447 233 ft 6 kts 20°
2026-04-29 16:15 40.89124 14.30448 233 ft 0 kts 15°
2026-04-29 16:17 40.89125 14.30448 233 ft 1 kts 15°
2026-04-29 16:18 40.89141 14.30452 232 ft 4 kts
2026-04-29 16:18 40.89178 14.30439 232 ft 7 kts 330°
2026-04-29 16:18 40.89212 14.30389 232 ft 9 kts 280°
2026-04-29 16:18 40.89207 14.30353 233 ft 0 kts 238°
2026-04-29 16:19 40.89206 14.30351 233 ft 1 kts 238°
2026-04-29 16:19 40.89108 14.30143 241 ft 62 kts 237°
2026-04-29 16:19 40.88758 14.29403 264 ft 125 kts 238°
2026-04-29 16:19 40.88221 14.28257 382 ft 161 kts 236°
2026-04-29 16:20 40.87610 14.26988 933 ft 163 kts 226°
2026-04-29 16:20 40.86660 14.26183 1557 ft 166 kts 199°
2026-04-29 16:20 40.85511 14.26063 2188 ft 169 kts 173°
2026-04-29 16:20 40.84321 14.26394 2675 ft 182 kts 172°
2026-04-29 16:21 40.83012 14.26621 3293 ft 197 kts 175°
2026-04-29 16:21 40.81571 14.26853 3833 ft 221 kts 174°
2026-04-29 16:21 40.80007 14.27111 4548 ft 234 kts 174°
2026-04-29 16:21 40.78368 14.27384 5463 ft 239 kts 175°
2026-04-29 16:22 40.76700 14.27661 6412 ft 243 kts 175°
2026-04-29 16:22 40.75008 14.27941 7322 ft 246 kts 175°
2026-04-29 16:22 40.73302 14.28225 8218 ft 249 kts 175°
2026-04-29 16:22 40.71579 14.28514 9095 ft 253 kts 174°
2026-04-29 16:23 40.69814 14.29021 9801 ft 268 kts 167°
2026-04-29 16:23 40.67941 14.29741 10216 ft 291 kts 166°
2026-04-29 16:23 40.65933 14.30525 10559 ft 315 kts 166°
2026-04-29 16:23 40.63739 14.31379 10879 ft 340 kts 165°
2026-04-29 16:24 40.61530 14.32736 11317 ft 361 kts 147°
2026-04-29 16:24 40.59726 14.35105 12066 ft 371 kts 126°
2026-04-29 16:24 40.58600 14.38136 12867 ft 376 kts 107°
2026-04-29 16:24 40.58255 14.41558 13669 ft 381 kts 88°
2026-04-29 16:25 40.58711 14.45006 14397 ft 384 kts 73°
2026-04-29 16:25 40.59401 14.48379 15101 ft 388 kts 75°
2026-04-29 16:25 40.59990 14.51882 15812 ft 393 kts 78°
2026-04-29 16:25 40.60462 14.55455 16518 ft 397 kts 80°
2026-04-29 16:26 40.60865 14.59076 17202 ft 401 kts 81°
2026-04-29 16:26 40.61241 14.62696 17875 ft 406 kts 81°
2026-04-29 16:26 40.61624 14.66408 18505 ft 410 kts 81°
2026-04-29 16:26 40.62004 14.70156 19096 ft 414 kts 81°
2026-04-29 16:27 40.62383 14.73891 19669 ft 417 kts 81°
2026-04-29 16:27 40.62771 14.77722 20241 ft 421 kts 81°
2026-04-29 16:27 40.63158 14.81570 20814 ft 425 kts 81°
2026-04-29 16:27 40.63542 14.85404 21371 ft 428 kts 82°
2026-04-29 16:28 40.63934 14.89319 21944 ft 432 kts 82°
2026-04-29 16:28 40.64322 14.93276 22521 ft 436 kts 82°
2026-04-29 16:28 40.64711 14.97215 23088 ft 439 kts 82°
2026-04-29 16:28 40.65110 15.01229 23619 ft 443 kts 82°
2026-04-29 16:29 40.65510 15.05285 24085 ft 446 kts 82°
2026-04-29 16:29 40.65911 15.09364 24563 ft 449 kts 82°
2026-04-29 16:29 40.66304 15.13412 25039 ft 452 kts 82°
2026-04-29 16:29 40.66706 15.17555 25482 ft 455 kts 82°
2026-04-29 16:30 40.67109 15.21714 25929 ft 458 kts 82°
2026-04-29 16:30 40.67513 15.25902 26359 ft 461 kts 82°
2026-04-29 16:30 40.67915 15.30074 26786 ft 464 kts 82°
2026-04-29 16:30 40.68321 15.34317 27202 ft 467 kts 82°
2026-04-29 16:31 40.68732 15.38595 27596 ft 470 kts 82°
2026-04-29 16:31 40.69140 15.42877 28003 ft 472 kts 82°
2026-04-29 16:31 40.69540 15.47134 28397 ft 475 kts 82°
2026-04-29 16:31 40.69948 15.51489 28789 ft 478 kts 82°
2026-04-29 16:32 40.70364 15.55862 29180 ft 480 kts 82°
2026-04-29 16:32 40.70774 15.60171 29688 ft 479 kts 82°
2026-04-29 16:32 40.71184 15.64552 30217 ft 478 kts 82°
2026-04-29 16:32 40.71592 15.68903 30675 ft 476 kts 82°
2026-04-29 16:33 40.72484 15.77511 31490 ft 475 kts 81°
2026-04-29 16:33 40.72933 15.81849 31869 ft 475 kts 81°
2026-04-29 16:33 40.73370 15.86132 32252 ft 475 kts 81°
2026-04-29 16:34 40.73803 15.90472 32633 ft 474 kts 82°
2026-04-29 16:34 40.74233 15.94753 33002 ft 474 kts 82°
2026-04-29 16:34 40.74670 15.99081 33353 ft 474 kts 82°
2026-04-29 16:34 40.75097 16.03341 33681 ft 474 kts 82°
2026-04-29 16:35 40.75528 16.07667 34017 ft 473 kts 82°
2026-04-29 16:35 40.75958 16.11988 34303 ft 473 kts 82°
2026-04-29 16:35 40.76381 16.16299 34565 ft 473 kts 82°
2026-04-29 16:35 40.76801 16.20555 34817 ft 473 kts 82°
2026-04-29 16:36 40.77224 16.24869 35033 ft 474 kts 82°
2026-04-29 16:36 40.77643 16.29175 35068 ft 472 kts 82°
2026-04-29 16:36 40.78475 16.37744 35078 ft 471 kts 82°
2026-04-29 16:37 40.79294 16.46346 35072 ft 471 kts 82°
2026-04-29 16:37 40.79978 16.53446 35077 ft 472 kts 82°
2026-04-29 16:38 40.80933 16.63515 35072 ft 472 kts 82°
2026-04-29 16:38 40.81745 16.72077 35064 ft 472 kts 82°
2026-04-29 16:39 40.82545 16.80649 35057 ft 471 kts 82°
2026-04-29 16:39 40.83337 16.89262 35042 ft 471 kts 82°
2026-04-29 16:40 40.84126 16.97820 35044 ft 471 kts 82°
2026-04-29 16:40 40.84909 17.06444 35029 ft 471 kts 82°
2026-04-29 16:41 40.85681 17.15025 35029 ft 471 kts 82°
2026-04-29 16:41 40.86449 17.23586 35026 ft 471 kts 82°
2026-04-29 16:42 40.87205 17.32217 35026 ft 471 kts 82°
2026-04-29 16:42 40.87949 17.40795 35026 ft 472 kts 82°
2026-04-29 16:43 40.88701 17.49440 35016 ft 472 kts 82°
2026-04-29 16:43 40.89450 17.58049 35016 ft 472 kts 82°
2026-04-29 16:44 40.90189 17.66660 35014 ft 472 kts 82°
2026-04-29 16:44 40.90918 17.75271 35016 ft 472 kts 82°
2026-04-29 16:45 40.91645 17.83917 35000 ft 473 kts 82°
2026-04-29 16:45 40.92361 17.92532 35012 ft 473 kts 82°
2026-04-29 16:46 40.93077 18.01203 35008 ft 473 kts 82°
2026-04-29 16:46 40.93932 18.09779 34997 ft 472 kts 80°
2026-04-29 16:47 40.94899 18.18342 35018 ft 472 kts 80°
2026-04-29 16:47 40.95866 18.26972 35011 ft 473 kts 80°
2026-04-29 16:48 40.96813 18.35564 34999 ft 473 kts 80°
2026-04-29 16:48 40.97773 18.44142 35001 ft 473 kts 80°
2026-04-29 16:49 40.98725 18.52758 35008 ft 474 kts 80°
2026-04-29 16:49 40.99664 18.61432 35007 ft 474 kts 80°
2026-04-29 16:50 41.00596 18.70051 35020 ft 474 kts 80°
2026-04-29 16:50 41.01522 18.78725 35021 ft 474 kts 80°
2026-04-29 16:51 41.02435 18.87352 35025 ft 474 kts 80°
2026-04-29 16:51 41.03343 18.95960 35033 ft 474 kts 80°
2026-04-29 16:52 41.04106 19.03194 35044 ft 475 kts 81°
2026-04-29 16:52 41.05004 19.11839 35059 ft 475 kts 81°
2026-04-29 16:53 41.06317 19.21860 35038 ft 472 kts 72°
2026-04-29 16:53 41.07835 19.28840 35053 ft 472 kts 71°
2026-04-29 16:54 41.09663 19.37215 35056 ft 472 kts 72°
2026-04-29 16:54 41.11464 19.45556 35051 ft 472 kts 72°
2026-04-29 16:55 41.13256 19.53932 35041 ft 467 kts 72°
2026-04-29 16:55 41.15016 19.62134 34719 ft 466 kts 72°
2026-04-29 16:56 41.15906 19.66299 34453 ft 471 kts 72°
2026-04-29 16:56 41.16788 19.70453 34211 ft 472 kts 72°
2026-04-29 16:56 41.17680 19.74653 33708 ft 469 kts 72°
2026-04-29 16:56 41.18559 19.78792 33072 ft 469 kts 72°
2026-04-29 16:57 41.19448 19.82987 32388 ft 469 kts 72°
2026-04-29 16:57 41.20336 19.87186 31690 ft 470 kts 72°
2026-04-29 16:57 41.21209 19.91330 31075 ft 470 kts 72°
2026-04-29 16:57 41.22086 19.95513 30515 ft 468 kts 72°
2026-04-29 16:58 41.22961 19.99685 29932 ft 466 kts 72°
2026-04-29 16:58 41.23819 20.03790 29294 ft 464 kts 72°
2026-04-29 16:58 41.24682 20.07927 28696 ft 462 kts 72°
2026-04-29 16:58 41.25540 20.12038 28112 ft 459 kts 72°
2026-04-29 16:59 41.26384 20.16107 27577 ft 454 kts 72°
2026-04-29 16:59 41.27222 20.20151 26992 ft 452 kts 72°
2026-04-29 16:59 41.28049 20.24125 26432 ft 449 kts 72°
2026-04-29 16:59 41.28884 20.28144 25874 ft 447 kts 72°
2026-04-29 17:00 41.29705 20.32133 25332 ft 445 kts 72°
2026-04-29 17:00 41.30515 20.36051 24811 ft 443 kts 72°
2026-04-29 17:00 41.31332 20.40022 24252 ft 443 kts 72°
2026-04-29 17:00 41.32144 20.43990 23694 ft 442 kts 72°
2026-04-29 17:01 41.32931 20.47938 23066 ft 442 kts 74°
2026-04-29 17:01 41.33318 20.51962 22469 ft 443 kts 86°
2026-04-29 17:01 41.33362 20.56026 21894 ft 441 kts 88°
2026-04-29 17:01 41.33377 20.60104 21313 ft 438 kts 88°
2026-04-29 17:02 41.33399 20.64141 20759 ft 432 kts 88°
2026-04-29 17:02 41.33425 20.68123 20231 ft 426 kts 88°
2026-04-29 17:02 41.33452 20.71996 19739 ft 420 kts 88°
2026-04-29 17:02 41.33480 20.75864 19248 ft 414 kts 88°
2026-04-29 17:03 41.33507 20.79645 18774 ft 408 kts 88°
2026-04-29 17:03 41.33530 20.83402 18326 ft 402 kts 88°
2026-04-29 17:03 41.33552 20.87102 17835 ft 396 kts 88°
2026-04-29 17:03 41.33574 20.90761 17352 ft 391 kts 88°
2026-04-29 17:04 41.33594 20.94318 16878 ft 386 kts 88°
2026-04-29 17:04 41.33614 20.97883 16427 ft 382 kts 88°
2026-04-29 17:04 41.33634 21.01429 15996 ft 381 kts 89°
2026-04-29 17:04 41.33652 21.04968 15572 ft 381 kts 89°
2026-04-29 17:05 41.33668 21.08444 15162 ft 380 kts 89°
2026-04-29 17:05 41.33680 21.11965 14718 ft 380 kts 89°
2026-04-29 17:05 41.33694 21.15489 14284 ft 380 kts 89°
2026-04-29 17:05 41.33708 21.19016 13852 ft 379 kts 89°
2026-04-29 17:06 41.33717 21.22469 13384 ft 373 kts 90°
2026-04-29 17:06 41.33728 21.25907 12935 ft 367 kts 90°
2026-04-29 17:06 41.33736 21.29281 12523 ft 360 kts 90°
2026-04-29 17:06 41.33742 21.32584 12118 ft 354 kts 90°
2026-04-29 17:07 41.33748 21.35786 11721 ft 348 kts 90°
2026-04-29 17:07 41.33756 21.38997 11326 ft 344 kts 90°
2026-04-29 17:07 41.33800 21.42186 10930 ft 343 kts 84°
2026-04-29 17:07 41.34445 21.45175 10666 ft 332 kts 61°
2026-04-29 17:08 41.35864 21.47462 10486 ft 317 kts 39°
2026-04-29 17:08 41.37584 21.49221 10359 ft 305 kts 35°
2026-04-29 17:08 41.39263 21.50888 10143 ft 296 kts 35°
2026-04-29 17:08 41.40893 21.52551 9795 ft 294 kts 36°
2026-04-29 17:09 41.42484 21.54209 9401 ft 293 kts 36°
2026-04-29 17:09 41.44096 21.55908 9010 ft 295 kts 37°
2026-04-29 17:09 41.45711 21.57626 8655 ft 295 kts 37°
2026-04-29 17:09 41.47289 21.59311 8307 ft 293 kts 37°
2026-04-29 17:10 41.48868 21.60999 7968 ft 289 kts 37°
2026-04-29 17:10 41.50436 21.62682 7647 ft 288 kts 37°
2026-04-29 17:10 41.52002 21.64360 7330 ft 288 kts 37°
2026-04-29 17:10 41.53551 21.66019 7013 ft 287 kts 38°
2026-04-29 17:11 41.55105 21.67691 6715 ft 283 kts 38°
2026-04-29 17:11 41.56628 21.69328 6402 ft 280 kts 38°
2026-04-29 17:11 41.58141 21.70955 6028 ft 278 kts 39°
2026-04-29 17:11 41.59657 21.72569 5654 ft 277 kts 36°
2026-04-29 17:12 41.61337 21.73697 5299 ft 274 kts 13°
2026-04-29 17:12 41.63226 21.73702 4968 ft 271 kts 349°
2026-04-29 17:12 41.65043 21.73108 4642 ft 271 kts 346°
2026-04-29 17:12 41.66241 21.72592 4409 ft 272 kts 342°
2026-04-29 17:13 41.68682 21.71693 3955 ft 270 kts 346°
2026-04-29 17:13 41.70504 21.71063 3597 ft 269 kts 346°
2026-04-29 17:13 41.72277 21.70455 3516 ft 256 kts 347°
2026-04-29 17:13 41.73929 21.69874 3504 ft 237 kts 346°
2026-04-29 17:14 41.75458 21.69344 3532 ft 216 kts 347°
2026-04-29 17:14 41.76851 21.68861 3563 ft 206 kts 346°
2026-04-29 17:14 41.78241 21.68379 3580 ft 207 kts 346°
2026-04-29 17:14 41.79635 21.67895 3589 ft 205 kts 347°
2026-04-29 17:15 41.81007 21.67418 3586 ft 206 kts 346°
2026-04-29 17:15 41.82391 21.66937 3519 ft 203 kts 347°
2026-04-29 17:15 41.83740 21.66469 3275 ft 197 kts 347°
2026-04-29 17:15 41.85043 21.66015 2996 ft 186 kts 347°
2026-04-29 17:16 41.86237 21.65602 2769 ft 169 kts 347°
2026-04-29 17:16 41.87346 21.65217 2526 ft 164 kts 347°
2026-04-29 17:16 41.88370 21.64860 2310 ft 141 kts 347°
2026-04-29 17:16 41.89306 21.64534 2089 ft 139 kts 347°
2026-04-29 17:17 41.90237 21.64210 1869 ft 137 kts 347°
2026-04-29 17:17 41.91147 21.63892 1672 ft 134 kts 347°
2026-04-29 17:17 41.92054 21.63578 1452 ft 133 kts 346°
2026-04-29 17:17 41.92926 21.63260 1291 ft 130 kts 347°
2026-04-29 17:18 41.93805 21.62959 1078 ft 130 kts 347°
2026-04-29 17:18 41.94677 21.62660 892 ft 127 kts 346°
2026-04-29 17:18 41.95507 21.62369 791 ft 114 kts 347°
2026-04-29 17:18 41.96127 21.62157 794 ft 87 kts 346°
2026-04-29 17:19 41.96301 21.62097 795 ft 28 kts 346°
2026-04-29 17:19 41.96471 21.62045 796 ft 20 kts 26°
2026-04-29 17:19 41.96519 21.62210 798 ft 19 kts 74°
2026-04-29 17:19 41.96435 21.62312 798 ft 21 kts 165°
2026-04-29 17:20 41.96306 21.62362 797 ft 16 kts 165°
2026-04-29 17:20 41.96191 21.62403 797 ft 18 kts 165°
2026-04-29 17:20 41.96124 21.62455 798 ft 11 kts 85°
2026-04-29 17:20 41.96081 21.62521 798 ft 5 kts 167°
2026-04-29 17:21 41.96063 21.62534 798 ft 3 kts 124°
2026-04-29 17:21 41.96064 21.62573 798 ft 5 kts 75°
2026-04-29 17:21 41.96067 21.62585 798 ft 0 kts 75°